Weather History for CWKG - February, 2014

Change the Weather History Date:

Tuesday, February 11, 2014

  Actual Average Record
Temperature  
Mean Temperature 8 °F -  
Max Temperature 20 °F - - ()
Min Temperature -4 °F - - ()
Degree Days  
Heating Degree Days 57    
Moisture  
Dew Point 5 °F    
Average Humidity 81    
Maximum Humidity 92    
Minimum Humidity 59    
Precipitation  
Precipitation 0.12 in - - ()
Sea Level Pressure  
Sea Level Pressure 30.11 in    
Wind  
Wind Speed 3 mph ()    
Max Wind Speed 6 mph    
Max Gust Speed -    
T = Trace of Precipitation, MM = Missing Value Source: Averaged Metar Reports

Daily Weather History Graph

Daily Weather History Graph

Search for Another Location

Airport or City:

Trip Planner

Search our weather history database for the weather conditions in past years. The results will help you decide how hot, cold, wet, or windy it might be!

Date:

Astronomy

Feb. 11, 2014 Rise Set
Actual Time 7:26 AM AST 5:44 PM AST
Civil Twilight 6:56 AM AST 6:14 PM AST
Nautical Twilight 6:22 AM AST 6:48 PM AST
Astronomical Twilight 5:48 AM AST 7:22 PM AST
Moon 2:58 PM AST (2/11) 5:04 AM AST (2/11)
Length of Visible Light 11h 17m
Length of Day
10h 17m
Waxing Gibbous, 90% of the Moon is Illuminated
Feb 11
Waxing Gibbous
Feb 14
Full
Feb 22
Last Quarter
Mar 1
New
Mar 8
First Quarter

Hourly Weather History & Observations

Time (AST) Temp. Windchill Dew Point Humidity Pressure Visibility Wind Dir Wind Speed Gust Speed Precip Events Conditions
12:00 AM 10.0 °F - 7.5 °F 90% 30.04 in - NW 2.3 mph - N/A   Unknown
1:00 AM 8.2 °F - 5.5 °F 89% 30.05 in - NNW 2.3 mph - N/A   Unknown
2:00 AM 7 °F - 4 °F 84% 30.06 in - West 2.3 mph - -  
2:00 AM 7.0 °F - 4.5 °F 89% 30.06 in - West 2.3 mph - N/A   Unknown
3:00 AM 5.9 °F - 0.1 °F 77% 30.06 in - West 2.3 mph - N/A   Unknown
4:00 AM 2.7 °F -4.8 °F -0.4 °F 87% 30.07 in - West 3.5 mph - N/A   Unknown
5:00 AM 3.4 °F -5.9 °F 1.2 °F 91% 30.08 in - West 4.6 mph - N/A   Unknown
6:00 AM -0.4 °F -8.3 °F -4.0 °F 85% 30.09 in - West 3.5 mph - N/A   Unknown
7:00 AM -2.7 °F - -6.5 °F 84% 30.11 in - West 2.3 mph - N/A   Unknown
8:00 AM -4 °F - -8 °F 75% 30.13 in - West 2.3 mph - -  
8:00 AM -4.0 °F - -7.8 °F 84% 30.13 in - West 2.3 mph - N/A   Unknown
9:00 AM 2.3 °F - -1.7 °F 84% 30.14 in - West 2.3 mph - N/A   Unknown
10:00 AM 9.0 °F - 5.5 °F 86% 30.14 in - South 1.2 mph - N/A   Unknown
11:00 AM 16.2 °F 10.6 °F 10.2 °F 77% 30.14 in - WSW 3.5 mph - N/A   Unknown
12:00 PM 19.8 °F 14.7 °F 11.3 °F 70% 30.12 in - SW 3.5 mph - N/A   Unknown
1:00 PM 20.3 °F 13.8 °F 13.6 °F 75% 30.11 in - West 4.6 mph - N/A   Unknown
2:00 PM 20 °F - 12 °F 59% 30.10 in - West 5.8 mph - -  
2:00 PM 20.1 °F 12.3 °F 11.7 °F 70% 30.10 in - West 5.8 mph - N/A   Unknown
3:00 PM 19.9 °F 12.1 °F 7.7 °F 59% 30.10 in - WSW 5.8 mph - N/A   Unknown
4:00 PM 18.0 °F 9.8 °F 13.6 °F 83% 30.11 in - WSW 5.8 mph - N/A   Unknown
5:00 PM 16.3 °F 9.2 °F 9.7 °F 75% 30.11 in - WSW 4.6 mph - N/A   Unknown
6:00 PM 14.4 °F 6.9 °F 8.8 °F 79% 30.12 in - West 4.6 mph - N/A   Unknown
7:00 PM 10.4 °F - 7.2 °F 87% 30.14 in - WSW 1.2 mph - N/A   Unknown
8:00 PM 8 °F - 4 °F 77% 30.15 in - WSW 2.3 mph - -  
8:00 PM 7.5 °F - 4.1 °F 86% 30.15 in - WSW 2.3 mph - N/A   Unknown
9:00 PM 7.3 °F - 4.3 °F 87% 30.16 in - West 2.3 mph - N/A   Unknown
10:00 PM 9.1 °F 2.6 °F 7.2 °F 92% 30.18 in - WNW 3.5 mph - N/A   Unknown
11:00 PM 10.4 °F 4.0 °F 8.2 °F 91% 30.20 in - WNW 3.5 mph - N/A   Unknown